Regional Weather Roundup
Issued by NWS

Home | Current Version | Previous Version | Text Only | Print | Product List | Glossary On
Versions: 1 2 3 4 5 6 7 8 9 10 11 12 13 14 15 16 17 18 19 20 21 22 23 24 25 26 27 28 29 30 31 32 33 34 35 36 37 38 39 40 41 42 43 44 45 46 47 48 49 50
000
ASUS45 KPSR 251210
RWRAZ

ARIZONA REGIONAL HOURLY WEATHER ROUNDUP
NATIONAL WEATHER SERVICE PHOENIX AZ
500 AM MST SAT OCT 25 2014

NOTE: FAIR INDICATES FEW OR NO CLOUDS BELOW 12,000 FEET WITH NO
SIGNIFICANT WEATHER AND/OR OBSTRUCTIONS TO VISIBILITY.

AZZ001>003-036-251300-
NORTHWEST ARIZONA

CITY           SKY/WX    TMP DP  RH WIND       PRES   REMARKS
BULLHEAD CITY  PTCLDY    68  41  37 CALM      29.97S
KINGMAN        CLEAR     63  41  44 S10       30.12S
6HR MIN TEMP:  57; 6HR MAX TEMP:  68;

$$

AZZ004>008-015-016-018-251300-
NORTH CENTRAL ARIZONA

CITY           SKY/WX    TMP DP  RH WIND       PRES   REMARKS
GRAND CANYON   PTCLDY    30  23  75 CALM      30.33R SMOKE
6HR MIN TEMP:  30; 6HR MAX TEMP:  37;

PRESCOTT       CLEAR     51  39  63 S9        30.24S
6HR MIN TEMP:  50; 6HR MAX TEMP:  56;

FLAGSTAFF      CLEAR     36  32  85 CALM      30.35S
6HR MIN TEMP:  36; 6HR MAX TEMP:  41;

PAYSON         CLEAR     55  39  54 CALM      30.26S
PAGE           CLEAR     55  33  43 S3        30.19R
6HR MIN TEMP:  54; 6HR MAX TEMP:  63;

$$

AZZ009>014-017-251300-
NORTHEAST ARIZONA

CITY           SKY/WX    TMP DP  RH WIND       PRES   REMARKS
WINSLOW        CLEAR     47  37  68 SE3       30.25S
6HR MIN TEMP:  46; 6HR MAX TEMP:  57;

SAINT JOHNS    CLEAR     45  38  76 CALM      30.30R
6HR MIN TEMP:  44; 6HR MAX TEMP:  55;

WINDOW ROCK    PTCLDY    34  24  67 CALM      30.36S
6HR MIN TEMP:  31; 6HR MAX TEMP:  42;

SHOW LOW       CLEAR     46  36  66 S8        30.35S
$$

AZZ023-251300-
GREATER PHOENIX AREA

CITY           SKY/WX    TMP DP  RH WIND       PRES   REMARKS
PHOENIX        CLEAR     71  49  45 CALM      29.98R
6HR MIN TEMP:  71; 6HR MAX TEMP:  81;

BUCKEYE          N/A     64  45  48 NE7       29.99S
LUKE AFB       CLEAR    N/A N/A N/A N5          N/A
DEER VALLEY    CLEAR     70  46  42 CALM      29.99S
6HR MIN TEMP:  68; 6HR MAX TEMP:  77;

SCOTTSDALE     CLEAR     68  51  54 CALM      30.01S
6HR MIN TEMP:  67; 6HR MAX TEMP:  75;

MESA-GATEWAY   CLEAR     66  48  52 E7        30.02S
$$

AZZ027-028-251300-
SOUTHWEST MARICOPA COUNTY AND PINAL COUNTY

CITY           SKY/WX    TMP DP  RH WIND       PRES   REMARKS
CASA GRANDE    CLEAR     64  46  52 CALM      30.01S
6HR MIN TEMP:  64; 6HR MAX TEMP:  70;

$$

AZZ503-504-507>509-251300-
SOUTHEAST ARIZONA

CITY           SKY/WX    TMP DP  RH WIND       PRES   REMARKS
TUCSON         CLEAR     65  47  52 SE9       30.11R
6HR MIN TEMP:  65; 6HR MAX TEMP:  73;

DAVIS-MONTHAN  CLEAR     65  47  52 SE10      30.09S
6HR MIN TEMP:  64; 6HR MAX TEMP:  70;

NOGALES        CLEAR     53  45  74 CALM      30.17S
6HR MIN TEMP:  53; 6HR MAX TEMP:  62;

SIERRA VISTA   CLEAR     61  44  53 SW5       30.22S
6HR MIN TEMP:  59; 6HR MAX TEMP:  67;

DOUGLAS        CLEAR     49  44  83 CALM      30.19S
6HR MIN TEMP:  48; 6HR MAX TEMP:  59;

SAFFORD        CLEAR     59  46  62 S5        30.13S
6HR MIN TEMP:  55; 6HR MAX TEMP:  65;

$$

AZZ020-021-025-026-031-251300-
SOUTHWEST ARIZONA

CITY           SKY/WX    TMP DP  RH WIND       PRES   REMARKS
YUMA           PTCLDY    74  46  36 N5        29.91S
6HR MIN TEMP:  73; 6HR MAX TEMP:  79;

$$

CAZ031-033-041-043-047-048-061-251300-
SOUTHERN CALIFORNIA

CITY           SKY/WX    TMP DP  RH WIND       PRES   REMARKS
DOWNTOWN L.A.  CLEAR     62  59  90 CALM      29.98S
6HR MIN TEMP:  62; 6HR MAX TEMP:  67;

L.A. AIRPORT   PTCLDY    64  61  90 W5        29.98F
6HR MIN TEMP:  63; 6HR MAX TEMP:  68;

SAN DIEGO      PTCLDY    68  63  84 CALM      29.99S
6HR MIN TEMP:  67; 6HR MAX TEMP:  71;

BURBANK        CLEAR     60  48  64 CALM      29.99R
6HR MIN TEMP:  60; 6HR MAX TEMP:  71;

ONTARIO        MOCLDY    65  42  43 CALM      29.99S
6HR MIN TEMP:  63; 6HR MAX TEMP:  74;

RIVERSIDE      MOCLDY    64  41  42 NE7       30.00S
6HR MIN TEMP:  62; 6HR MAX TEMP:  70;

PALM SPRINGS   CLEAR     73  46  38 CALM      29.95R
6HR MIN TEMP:  70; 6HR MAX TEMP:  79;

EL CENTRO NAS  PTCLDY    68  46  45 N6        29.90R
6HR MIN TEMP:  68; 6HR MAX TEMP:  76;

IMPERIAL       PTCLDY    70  49  47 CALM      29.90R
6HR MIN TEMP:  70; 6HR MAX TEMP:  76;

BLYTHE         PTCLDY    67  44  43 NE5       29.93R
6HR MIN TEMP:  67; 6HR MAX TEMP:  77;

NEEDLES        PTCLDY    69  40  34 W6        29.96S
6HR MIN TEMP:  69; 6HR MAX TEMP:  79;

$$

NVZ020-UTZ003-251300-
SOUTHERN NEVADA-UTAH

CITY           SKY/WX    TMP DP  RH WIND       PRES   REMARKS
LAS VEGAS      CLEAR     66  38  35 SW6       29.98S
6HR MIN TEMP:  65; 6HR MAX TEMP:  73;

SALT LAKE CITY CLEAR     59  30  33 S14       30.06S
6HR MIN TEMP:  56; 6HR MAX TEMP:  65;

$$

NMZ009-TXZ055-251300-
NEW MEXICO-WEST TEXAS

CITY           SKY/WX    TMP DP  RH WIND       PRES   REMARKS
ALBUQUERQUE    CLEAR     51  37  58 CALM      30.29S
6HR MIN TEMP:  51; 6HR MAX TEMP:  62;

EL PASO        CLEAR     58  48  69 CALM      30.20R
6HR MIN TEMP:  55; 6HR MAX TEMP:  67;

$$


........................KEY........................
SKY/WX - SKY CONDITION/WEATHER
TMP    - TEMPERATURE IN FAHRENHEIT
DP     - DEW POINT IN FAHRENHEIT
RH     - RELATIVE HUMIDITY IN PERCENT
WIND   - DIRECTION AND SPEED IN MILES PER HOUR (MPH)
VRB    - VARIABLE WIND DIRECTION
PRES   - MEAN SEA LEVEL PRESSURE IN INCHES OF MERCURY
         F - FALLING PRESSURE   R - RISING PRESSURE
         S - STEADY PRESSURE
VSB    - VISIBILITY IN MILES
HX     - HEAT INDEX IN FAHRENHEIT
WCI    - WIND CHILL INDEX IN FAHRENHEIT
TC     - TEMPERATURE IN CELSIUS WHICH IS ALSO KNOWN AS
         TEMPERATURE IN CENTIGRADE
AFB    - AIR FORCE BASE
         LUKE AFB IS LUKE AIR FORCE BASE
         DAVIS-MONTHAN IS DAVIS-MONTHAN AIR FORCE BASE
NAS    - NAVAL AIR STATION
         EL CENTRO NAS IS EL CENTRO NAVAL AIR STATION
N/A    - NOT AVAILABLE



USA.gov is the U.S. government's official web portal to all federal, state and local government web resources and services.